Medford, WI

5:14 PM CDT on October 20, 2017 (GMT -0500)
Taylor County

Weather History for KMDZ - November, 2011

Change the Weather History Date:

Tuesday, November 29, 2011

  Actual Average Record
Temperature  
Mean Temperature 29 °F -  
Max Temperature 35 °F 28 °F 57 °F (1998)
Min Temperature 23 °F 14 °F -17 °F (1976)
Degree Days  
Heating Degree Days 36    
Moisture  
Dew Point 22 °F    
Average Humidity 73    
Maximum Humidity 86    
Minimum Humidity 48    
Precipitation  
Precipitation 0.00 in - - ()
Sea Level Pressure  
Sea Level Pressure 30.13 in    
Wind  
Wind Speed 8 mph (North)    
Max Wind Speed 13 mph    
Max Gust Speed 22 mph    
Visibility 10 miles    
Events      
Averages and records for this station are not official NWS values.
T = Trace of Precipitation, MM = Missing Value Source: NWS Daily Summary

Daily Weather History Graph

Daily Weather History Graph

Search for Another Location

Airport or City:

Trip Planner

Search our weather history database for the weather conditions in past years. The results will help you decide how hot, cold, wet, or windy it might be!

Date:

Astronomy

Nov. 29, 2011 Rise Set
Actual Time 7:16 AM CST 4:21 PM CST
Civil Twilight 6:43 AM CST 4:54 PM CST
Nautical Twilight 6:07 AM CST 5:31 PM CST
Astronomical Twilight 5:31 AM CST 6:06 PM CST
Moon 10:58 AM CST (11/29) 9:20 PM CST (11/29)
Length of Visible Light 10h 10m
Length of Day
9h 04m
Waxing Crescent, 24% of the Moon is Illuminated
Nov 29
Waxing Crescent
Dec 2
First Quarter
Dec 10
Full
Dec 17
Last Quarter
Dec 24
New

Hourly Weather History & Observations

Time (CST) Temp. Windchill Dew Point Humidity Pressure Visibility Wind Dir Wind Speed Gust Speed Precip Events Conditions
12:15 AM 30.2 °F 21.3 °F 26.6 °F 86% 30.09 in 10.0 mi North 10.4 mph 18.4 mph N/A   Unknown
12:35 AM 30.2 °F 20.8 °F 26.6 °F 86% 30.10 in 10.0 mi North 11.5 mph 20.7 mph N/A   Unknown
12:55 AM 30.2 °F 22.6 °F 26.6 °F 86% 30.10 in 10.0 mi North 8.1 mph 18.4 mph N/A   Unknown
1:15 AM 30.2 °F 21.9 °F 26.6 °F 86% 30.10 in 10.0 mi North 9.2 mph - N/A   Unknown
1:35 AM 30.2 °F 20.8 °F 26.6 °F 86% 30.11 in 10.0 mi North 11.5 mph 18.4 mph N/A   Unknown
1:55 AM 30.2 °F 21.9 °F 26.6 °F 86% 30.12 in 10.0 mi North 9.2 mph 17.3 mph N/A   Unknown
2:15 AM 30.2 °F 21.3 °F 26.6 °F 86% 30.12 in 10.0 mi North 10.4 mph - N/A   Unknown
2:35 AM 30.2 °F 23.4 °F 26.6 °F 86% 30.13 in 10.0 mi North 6.9 mph - N/A   Unknown
2:55 AM 30.2 °F 23.4 °F 26.6 °F 86% 30.14 in 10.0 mi North 6.9 mph - N/A   Unknown
3:15 AM 30.2 °F 24.3 °F 26.6 °F 86% 30.14 in 10.0 mi North 5.8 mph - N/A   Unknown
3:35 AM 30.2 °F 24.3 °F 26.6 °F 86% 30.14 in 10.0 mi North 5.8 mph - N/A   Unknown
3:55 AM 28.4 °F 20.4 °F 24.8 °F 86% - 10.0 mi North 8.1 mph - N/A   Unknown
4:15 AM 28.4 °F 19.7 °F 24.8 °F 86% 30.15 in 10.0 mi North 9.2 mph - N/A   Unknown
4:35 AM 28.4 °F 20.4 °F 24.8 °F 86% 30.15 in 10.0 mi North 8.1 mph - N/A   Unknown
4:55 AM 28.4 °F 19.7 °F 24.8 °F 86% 30.16 in 10.0 mi North 9.2 mph - N/A   Unknown
5:15 AM 28.4 °F 20.4 °F 23.0 °F 80% 30.16 in 10.0 mi North 8.1 mph - N/A   Unknown
5:35 AM 28.4 °F 21.2 °F 23.0 °F 80% 30.16 in 10.0 mi North 6.9 mph - N/A   Unknown
5:55 AM 26.6 °F 19.1 °F 21.2 °F 80% 30.18 in 10.0 mi North 6.9 mph - N/A   Unknown
6:15 AM 26.6 °F 19.1 °F 21.2 °F 80% 30.17 in 10.0 mi North 6.9 mph - N/A   Unknown
6:35 AM 26.6 °F 17.5 °F 21.2 °F 80% 30.16 in 10.0 mi North 9.2 mph - N/A   Unknown
6:55 AM 26.6 °F 19.1 °F 21.2 °F 80% 30.17 in 10.0 mi North 6.9 mph - N/A   Unknown
7:15 AM 26.6 °F 18.2 °F 21.2 °F 80% 30.17 in 10.0 mi North 8.1 mph - N/A   Unknown
7:35 AM 26.6 °F 18.2 °F 21.2 °F 80% 30.17 in 10.0 mi North 8.1 mph - N/A   Unknown
7:55 AM 26.6 °F 18.2 °F 21.2 °F 80% 30.16 in 10.0 mi North 8.1 mph - N/A   Unknown
8:15 AM 26.6 °F 19.1 °F 19.4 °F 74% 30.17 in 10.0 mi North 6.9 mph - N/A   Unknown
8:35 AM 26.6 °F 19.1 °F 19.4 °F 74% 30.18 in 10.0 mi North 6.9 mph - N/A   Unknown
8:55 AM 26.6 °F 20.0 °F 21.2 °F 80% 30.18 in 10.0 mi North 5.8 mph - N/A   Unknown
9:15 AM 28.4 °F 21.2 °F 19.4 °F 69% 30.17 in 10.0 mi North 6.9 mph - N/A   Unknown
9:35 AM 28.4 °F 22.2 °F 21.2 °F 74% 30.19 in 10.0 mi North 5.8 mph - N/A   Unknown
9:55 AM 30.2 °F 21.9 °F 19.4 °F 64% 30.19 in 10.0 mi North 9.2 mph - N/A   Unknown
10:35 AM 32.0 °F 24.2 °F 21.2 °F 64% 30.18 in 10.0 mi North 9.2 mph - N/A   Unknown
10:55 AM 30.2 °F 21.3 °F 21.2 °F 69% 30.17 in 10.0 mi NNW 10.4 mph - N/A   Unknown
11:15 AM 32.0 °F 23.0 °F 21.2 °F 64% 30.16 in 10.0 mi North 11.5 mph - N/A   Unknown
11:35 AM 33.8 °F 24.8 °F 21.2 °F 60% 30.16 in 10.0 mi North 12.7 mph 19.6 mph N/A   Unknown
11:55 AM 33.8 °F 25.8 °F 19.4 °F 56% 30.16 in 10.0 mi North 10.4 mph - N/A   Unknown
12:35 PM 33.8 °F 26.4 °F 19.4 °F 56% 30.15 in 10.0 mi North 9.2 mph 20.7 mph N/A   Unknown
12:55 PM 33.8 °F 26.4 °F 19.4 °F 56% 30.14 in 10.0 mi North 9.2 mph 19.6 mph N/A   Unknown
1:55 PM 35.6 °F 27.1 °F 17.6 °F 48% 30.12 in 10.0 mi NNW 12.7 mph 21.9 mph N/A   Unknown
2:15 PM 35.6 °F 27.5 °F 17.6 °F 48% 30.11 in 10.0 mi North 11.5 mph - N/A   Unknown
2:35 PM 35.6 °F 27.1 °F 19.4 °F 52% 30.11 in 10.0 mi North 12.7 mph 16.1 mph N/A   Unknown
2:55 PM 33.8 °F 25.8 °F 19.4 °F 56% 30.11 in 10.0 mi NNW 10.4 mph 18.4 mph N/A   Unknown
3:15 PM 33.8 °F 25.8 °F 19.4 °F 56% 30.11 in 10.0 mi NNW 10.4 mph - N/A   Unknown
3:35 PM 33.8 °F 25.8 °F 19.4 °F 56% 30.11 in 10.0 mi North 10.4 mph 19.6 mph N/A   Unknown
3:55 PM 33.8 °F 27.0 °F 19.4 °F 56% 30.11 in 10.0 mi North 8.1 mph - N/A   Unknown
4:15 PM 32.0 °F 24.8 °F 19.4 °F 60% 30.11 in 10.0 mi North 8.1 mph - N/A   Unknown
4:35 PM 30.2 °F 23.4 °F 19.4 °F 64% 30.11 in 10.0 mi NNW 6.9 mph - N/A   Unknown
4:55 PM 30.2 °F 23.4 °F 19.4 °F 64% 30.11 in 10.0 mi NNW 6.9 mph - N/A   Unknown
5:15 PM 28.4 °F 22.2 °F 19.4 °F 69% 30.12 in 10.0 mi NNW 5.8 mph - N/A   Unknown
5:35 PM 28.4 °F 22.2 °F 19.4 °F 69% 30.12 in 10.0 mi North 5.8 mph - N/A   Unknown
5:55 PM 28.4 °F 23.3 °F 19.4 °F 69% 30.12 in 10.0 mi North 4.6 mph - N/A   Unknown
6:15 PM 26.6 °F 21.2 °F 19.4 °F 74% 30.11 in 10.0 mi North 4.6 mph - N/A   Unknown
6:35 PM 26.6 °F 22.6 °F 19.4 °F 74% 30.10 in 10.0 mi North 3.5 mph - N/A   Unknown
6:55 PM 26.6 °F 22.6 °F 19.4 °F 74% 30.10 in 10.0 mi NNW 3.5 mph - N/A   Unknown
7:15 PM 26.6 °F 22.6 °F 19.4 °F 74% 30.09 in 10.0 mi NNW 3.5 mph - N/A   Unknown
7:35 PM 24.8 °F - 19.4 °F 80% 30.08 in 10.0 mi Calm Calm - N/A   Unknown
7:55 PM 24.8 °F 20.5 °F 19.4 °F 80% 30.09 in 10.0 mi NW 3.5 mph - N/A   Unknown
8:15 PM 23.0 °F 17.0 °F 17.6 °F 80% 30.09 in 10.0 mi NW 4.6 mph - N/A   Unknown
8:35 PM 23.0 °F 18.4 °F 17.6 °F 80% 30.09 in 10.0 mi NW 3.5 mph - N/A   Unknown
8:55 PM 23.0 °F - 17.6 °F 80% 30.08 in 10.0 mi Calm Calm - N/A   Unknown
9:15 PM 23.0 °F - 17.6 °F 80% 30.07 in 10.0 mi Calm Calm - N/A   Unknown
9:55 PM 21.2 °F - 17.6 °F 86% 30.06 in 10.0 mi Calm Calm - N/A   Unknown
10:15 PM 21.2 °F - 17.6 °F 86% 30.05 in 10.0 mi Calm Calm - N/A   Unknown
10:35 PM 21.2 °F - 17.6 °F 86% 30.04 in 10.0 mi Calm Calm - N/A   Unknown
10:55 PM 19.4 °F - 17.6 °F 93% 30.04 in 10.0 mi Calm Calm - N/A   Unknown
11:15 PM 19.4 °F - 17.6 °F 93% 30.03 in 10.0 mi Calm Calm - N/A   Unknown
11:35 PM 21.2 °F - 17.6 °F 86% 30.02 in 10.0 mi Calm Calm - N/A   Unknown
11:55 PM 19.4 °F - 17.6 °F 93% 30.03 in 10.0 mi Calm Calm - N/A   Unknown